Location: San Gennaro Vesuviano
(40.8833°N, 14.5333°E)
Time: 10:46:22
(UTC+00:00)

Cosmos 1818 - Pass Details

Date: 22 April 2021
Orbit: 772 x 802 km, 65.0° (Epoch: 11 May)

Event Time Altitude Azimuth Distance (km) Brightness Sun altitude
Rises 18:38:17 0° 222° (SW) 3,267 7.0 -9.5°
Reaches altitude 10° 18:40:43 10° 226° (SW) 2,347 6.3 -9.9°
Maximum altitude 18:46:02 59° 306° (NW) 917 4.3 -10.8°
Drops below altitude 10° 18:51:26 10° 25° (NNE) 2,377 6.1 -11.7°
Sets 18:53:56 0° 30° (NNE) 3,314 6.8 -12.1°
